Flight Track Log - Related Links

Times and Time Zones

All times are in EDT time to prevent confusion due to time zone crossing. See the EJA929 flight status page for this flight to view local times or setup timezone preferences in your user account.

Time Position Orientation Groundspeed Altitude Reporting Facility
EDT Latitude Longitude Course Direction KTS MPH feet Rate Location/Type
Wed 12:50:43 PM 41.2972 -72.0753 213° Southwest 224 258 1,500  Level Boston Center
Wed 12:52:16 PM 41.2058 -72.1531 213° Southwest 261 300 5,500 2,588 Climbing Boston Center
Wed 12:53:16 PM 41.1394 -72.2114 213° Southwest 277 319 8,100 2,700 Climbing Boston Center
Wed 12:54:16 PM 41.0664 -72.2722 212° Southwest 299 344 10,900 2,650 Climbing Boston Center
Wed 12:55:16 PM 41.0083 -72.3575 228° Southwest 304 350 13,400 2,250 Climbing Boston Center
Wed 12:56:16 PM 40.9644 -72.4539 239° Southwest 312 359 15,400 1,900 Climbing Boston Center
Wed 12:57:16 PM 40.9122 -72.5583 237° Southwest 325 374 17,200 1,550 Climbing Boston Center
Wed 12:58:16 PM 40.8600 -72.6733 239° Southwest 350 403 18,500 1,418 Climbing Boston Center
Wed 01:00:18 PM 40.7489 -72.9050 238° Southwest 393 452 21,500 1,516 Climbing New York Center
Wed 01:01:18 PM 40.6858 -73.0428 239° Southwest 398 458 23,100 1,230 Climbing New York Center
Wed 01:02:20 PM 40.6439 -73.1642 246° West 408 470 24,000 450 Climbing New York Center
Wed 01:03:18 PM 40.5881 -73.3344 247° West 443 510 24,000  Level New York Center
Wed 01:04:18 PM 40.5389 -73.4800 246° West 479 551 24,000  Level New York Center
Wed 01:05:19 PM 40.4783 -73.6606 246° West 497 572 24,000 -99 Level New York Center
Wed 01:06:19 PM 40.4242 -73.8300 247° West 497 572 23,800 -950 Descending New York Center
Wed 01:07:19 PM 40.3986 -74.0006 259° West 497 572 22,100 -893 Descending New York Center
Wed 01:08:20 PM 40.4003 -74.1694 271° West 482 555 22,000 -50 Descending New York Center
Wed 01:09:18 PM 40.3972 -74.3383 269° West 477 549 22,000  Level New York Center
Wed 01:10:18 PM 40.3900 -74.5042 267° West 472 543 22,000 -590 Level New York Center
Wed 01:11:20 PM 40.3658 -74.6717 259° West 472 543 20,800 -1,450 Descending New York Center
Wed 01:12:18 PM 40.3436 -74.8394 260° West 472 543 19,100 -908 Descending New York Center
Wed 01:13:19 PM 40.3189 -75.0039 259° West 472 543 19,000 -49 Descending New York Center
Wed 01:14:20 PM 40.2942 -75.1656 259° West 461 531 19,000  Level New York Center
Wed 01:15:20 PM 40.2694 -75.3275 259° West 461 531 19,000  Level New York Center
Wed 01:16:18 PM 40.2472 -75.4700 258° West 456 525 19,000  Level New York Center
Wed 01:17:18 PM 40.2239 -75.6289 259° West 456 525 19,000  Level New York Center
Wed 01:18:19 PM 40.1958 -75.8036 258° West 450 518 19,000  Level New York Center
Wed 01:19:19 PM 40.1703 -75.9619 258° West 445 512 19,000 -50 Level New York Center
Wed 01:20:20 PM 40.1364 -76.1142 254° West 445 512 18,900 -843 Descending New York Center
Wed 01:21:20 PM 40.0775 -76.2617 242° Southwest 452 520 17,300 -1,729 Descending New York Center
Wed 01:22:18 PM 40.0183 -76.4089 242° Southwest 461 531 15,500 -1,169 Descending New York Center
Wed 01:23:18 PM 39.9664 -76.5347 242° Southwest 452 520 15,000 -122 Descending New York Center
Wed 01:25:35 PM 39.8333 -76.8667 243° Southwest 446 513 15,100 30 Climbing Potomac TRACON
Wed 01:26:35 PM 39.7667 -77.0167 240° Southwest 452 520 15,100 -1,000 Level Potomac TRACON
Wed 01:27:35 PM 39.7167 -77.1667 247° West 443 510 13,100 -2,300 Descending Potomac TRACON
Wed 01:28:35 PM 39.6500 -77.2833 233° Southwest 400 460 10,500 -1,654 Descending Potomac TRACON
Wed 01:29:42 PM 39.5500 -77.3333 201° Southwest 302 348 9,600 -1,190 Descending Potomac TRACON
Wed 01:30:36 PM 39.4833 -77.3667 201° Southwest 303 349 8,100 -1,421 Descending Potomac TRACON
Wed 01:31:36 PM 39.4000 -77.3667 180° South 296 341 6,900 -1,143 Descending Potomac TRACON
Wed 01:32:42 PM 39.3167 -77.3667 180° South 282 325 5,700 -1,050 Descending Potomac TRACON
Wed 01:33:36 PM 39.2333 -77.3667 180° South 283 326 4,800 -800 Descending Potomac TRACON
Wed 01:34:42 PM 39.1667 -77.3667 180° South 243 280 4,100 -333 Descending Potomac TRACON
Wed 01:35:42 PM 39.1000 -77.3667 180° South 246 283 4,100  Level Potomac TRACON
Wed 01:36:36 PM 39.0333 -77.3667 180° South 248 285 4,100  Level Potomac TRACON
Wed 01:37:42 PM 38.9667 -77.3667 180° South 242 278 4,100 -350 Level Potomac TRACON
Wed 01:38:36 PM 38.9167 -77.3667 180° South 204 235 3,400 -522 Descending Potomac TRACON
Wed 01:39:37 PM 38.8500 -77.3667 180° South 199 229 3,100 -595 Descending Potomac TRACON
Wed 01:40:37 PM 38.8167 -77.4000 218° Southwest 210 242 2,200 -750 Descending Potomac TRACON
Wed 01:41:37 PM 38.8500 -77.4333 322° Northwest 181 208 1,600 -574 Descending Potomac TRACON
Wed 01:42:32 PM 38.8833 -77.4333 360° North 139 160 1,100 -545 Descending Potomac TRACON
Wed 01:44:00 PM 38.9333 -77.4500 349° North  Level FlightAware Approximate
Wed 01:51:00 PM 38.9474 -77.4599 349° North  Level Estimated
Wed 01:52:00 PM 38.9474 -77.4599 349° North  Level Estimated
Wed 01:53:00 PM 38.9474 -77.4599 349° North  Level Estimated
Wed 01:54:00 PM 38.9474 -77.4599 349° North  Level Estimated

Login

Don't have an account? Register now (free) for customized features, flight alerts, and more!